Regional Weather Roundup
Issued by NWS Kansas City/Pleasant Hill, MO

Home | Current Version | Previous Version | Text Only | Print | Product List | Glossary On
Versions: 1 2 3 4 5 6 7 8 9 10 11 12 13 14 15 16 17 18 19 20 21 22 23 24 25 26 27 28 29 30 31 32 33 34 35 36 37 38 39 40 41 42 43 44 45 46 47 48 49 50
000
ASUS43 KEAX 010304
RWREAX

WEATHER ROUNDUP FOR EASTERN KANSAS AND NORTHWEST MISSOURI
NATIONAL WEATHER SERVICE KANSAS CITY/PLEASANT HILL MO
1000 PM CDT THU JUL 31 2014

KSZ040-057-103>105-MOZ028-029-037-043-010400-
...KANSAS CITY METROPOLITAN AREA...

CITY           SKY/WX    TMP DP  RH WIND       PRES   REMARKS
K.C. INTL      MOCLDY    73  56  54 SE7       30.05S
K.C. DOWNTOWN  MOCLDY    75  57  53 E5        30.04R
LEES SUMMIT    MOCLDY    72  60  66 E6        30.06R
OLATHE - IXD   PTCLDY    71  59  65 SE6       30.06R
OLATHE - OJC   PTCLDY    72  59  63 SE5       30.05R
LAWRENCE       CLEAR     66  60  81 E6        30.04R

$$

MOZ001>008-011>017-020>025-030>033-038>040-044>046-053-054-010400-
...NORTHERN AND CENTRAL MISSOURI...

CITY           SKY/WX    TMP DP  RH WIND       PRES   REMARKS
ST. JOSEPH     MOCLDY    65  61  87 CALM      30.04R
MOSBY          MOCLDY    66  63  88 CALM      30.05R
WHITEMAN AFB   NOT AVBL
CLINTON        MOCLDY    68  63  83 CALM      30.05S
SEDALIA        PTCLDY    71  59  65 CALM      30.06S
WARSAW         NOT AVBL
MARSHALL       PTCLDY    72  63  73 CALM      30.07R
CHILLICOTHE      N/A     67  60  78 CALM      30.06R
KIRKSVILLE     CLEAR     63  60  90 CALM      30.07R

$$

MOZ041-047>049-056>058-063>065-088>090-097-010400-
...EASTERN AND SOUTHERN MISSOURI...

CITY           SKY/WX    TMP DP  RH WIND       PRES   REMARKS
ST. LOUIS INTL PTCLDY    76  60  57 NE3       30.07R
SPIRIT OF STL  CLEAR     69  61  75 SW3       30.05R
COLUMBIA       CLEAR     69  58  67 NE7       30.06R
JEFFERSON CITY CLEAR     72  58  61 CALM      30.04R
HANNIBAL       CLEAR     66  59  77 CALM      30.07R
ROLLA          CLOUDY    72  57  59 S5        30.05R
LEBANON        CLEAR     70  63  78 S3        30.08R
OSAGE BEACH      N/A     68  57  68 N5        30.05R
SPRINGFIELD    CLEAR     68  64  87 S6        30.07R
BRANSON        CLEAR     66  64  94 CALM      30.10R
NEVADA         PTCLDY    68  61  77 CALM      30.06R
JOPLIN         CLEAR     70  67  90 SW3       30.07R
WEST PLAINS    MOCLDY    66  63  90 CALM      30.10R
MALDEN         PTCLDY    70  66  88 CALM      30.07S

$$

IAZ060-094-KSZ022-034>040-054-083-096-NEZ052-066-093-010400-
...KANSAS...SOUTHEAST NEBRASKA AND IOWA...

CITY           SKY/WX    TMP DP  RH WIND       PRES   REMARKS
TOPEKA         CLEAR     73  58  59 CALM      30.04R
MANHATTAN      CLEAR     72  57  59 S6        30.03R
EMPORIA        CLEAR     66  57  72 S6        30.06R
CHANUTE        CLEAR     66  61  84 S5        30.06R
WICHITA        PTCLDY    70  57  63 S6        30.05S
OMAHA          MOCLDY    73  60  63 E10       30.03R
LINCOLN        MOCLDY    77  58  51 E14       30.02R
FALLS CITY     PTCLDY    69  60  73 SE6       30.03R
LAMONI         PTCLDY    73  55  53 S3        30.05R
DES MOINES     MOCLDY    70  62  76 NE5       30.04R

$$



USA.gov is the U.S. government's official web portal to all federal, state and local government web resources and services.